{"data":{"norad_id":59487,"intl_designator":"2024-071D","name":"STARLINK-31657","alt_names":[],"object_type":"PAYLOAD","status":"ACTIVE","operator":null,"country":"US","launch_date":"2024-04-13","launch_site_code":"AFETR","launch_vehicle":null,"mission":null,"orbit_class":"UNKNOWN","rcs_meters":null,"size_class":null,"mass_kg":null,"dimensions":null,"purposes":["comms"],"wikipedia_slug":null,"has_3d_model":false,"image_url":null,"decayed_at":null,"tle_current":{"epoch":"2026-05-25T00:59:13.996608Z","epoch_age_seconds":74659,"freshness":"FRESH","line1":"1 59487U 24071D   26145.04113422  .00001491  00000+0  63689-4 0  9992","line2":"2 59487  43.0006 268.4595 0001315 285.0685  75.0021 15.27582039119885","mean_motion":15.27582039,"eccentricity":0.0001315,"inclination_deg":43.0006,"raan_deg":268.4595,"arg_perigee_deg":285.0685,"mean_anomaly_deg":75.0021,"bstar":6.3689e-5,"rev_number":11988,"period_min":94.266622887414,"perigee_km":482.14074537816,"apogee_km":483.94523571568,"semimajor_km":6861.1799905469,"source":"CELESTRAK","updated_at":"2026-05-25T13:38:18.953049Z"}}}